Location: Azul
(36.7830°S, 59.8500°W)
Time: 10:00:59
(UTC-03:00)

NOAA 15 - Pass Details

Date: 26 October 2021
Orbit: 797 x 813 km, 98.7° (Epoch: 07 December)

Event Time Altitude Azimuth Distance (km) Brightness Sun altitude
Rises 22:12:42 0° 188° (S) 3,341 8.6 -29.1°
Reaches altitude 10° 22:16:08 10° 211° (SSW) 2,404 8.0 -29.5°
Maximum altitude 22:18:50 14° 242° (WSW) 2,111 7.5 -29.9°
Drops below altitude 10° 22:21:32 10° 273° (W) 2,395 7.5 -30.2°
Sets 22:24:58 0° 297° (WNW) 3,319 8.0 -30.7°
